Track COSMOS 2465 (GLONASS) now! COSMOS 2465 (GLONASS) is classified as:
1 37138U 10041B 26164.39246970 .00000115 00000-0 00000-0 0 9994 2 37138 63.9100 190.3699 0041062 182.0965 237.9118 2.13098321122784